Flag for Aruba Weather past 2 weeks in Oranjestad, Aruba

Now
82 °F

Passing clouds.


Feels Like: 89 °F
Forecast: N/A
Wind: 20 mph from East

Location: Queen Beatrix Airport - Aruba


UV Index: N/A

Visibility: N/A


Pressure: 29.83 "Hg

Humidity: 79%

Dew point: 75 °F

Location of OranjestadLocation

Historic Weather in Oranjestad

°F

Oranjestad temperature yesterday

Maximum temperature yesterday: 90 °F (at 1:00 PM)
Minimum temperature yesterday: 81 °F (at 12:00 AM)
Average temperature yesterday: 84 °F

Past Weeks' High & Low Weather Summary

 TemperatureHumidityPressure
High90 °F (Apr 11, 2:00 PM)94% (Apr 17, 5:00 AM)30.01 "Hg (Apr 17, 5:00 AM)
Low77 °F (Apr 15, 6:00 AM)59% (Apr 11, 12:00 PM)29.71 "Hg (Apr 22, 5:00 PM)
Average83 °F76%29.87 "Hg
* Reported Apr 9 6:00 PM — Apr 24 6:00 PM, Oranjestad, Weather by CustomWeather, © 2014

Note: Actual official high and low records may vary slightly from our data, if they occured in-between our weather recording intervals... More about our weather records

Advertising

Historic Weather Conditions — Data for Previous 24 hours

 ConditionsComfort  
Time TempWeatherWind HumidityBarometerVisibility
6:00 PM
Apr 24
82 °FPassing clouds.25 mph79%29.83 "HgN/A
5:00 PM86 °FPassing clouds.23 mph70%29.80 "HgN/A
4:00 PM86 °FPassing clouds.23 mph70%29.83 "HgN/A
3:00 PM84 °FScattered clouds.22 mph74%29.83 "HgN/A
2:00 PM86 °FScattered clouds.22 mph70%29.86 "HgN/A
1:00 PM88 °FPassing clouds.24 mph66%29.89 "HgN/A
12:00 PM86 °FScattered clouds.25 mph70%29.92 "HgN/A
11:00 AM88 °FScattered clouds.25 mph66%29.92 "HgN/A
10:00 AM86 °FScattered clouds.28 mph70%29.92 "HgN/A
9:00 AM84 °FScattered clouds.25 mph74%29.92 "HgN/A
8:00 AM82 °FScattered clouds.24 mph79%29.89 "HgN/A
7:00 AM81 °FScattered clouds.17 mph84%29.86 "HgN/A
6:00 AM81 °FPassing clouds.18 mph84%29.86 "HgN/A
5:00 AM81 °FPassing clouds.20 mph79%29.83 "HgN/A
4:00 AM81 °FPassing clouds.17 mph84%29.83 "HgN/A
3:00 AM81 °FPassing clouds.17 mph84%29.86 "HgN/A
1:00 AM81 °FWarm.20 mph84%29.86 "HgN/A
12:00 AM81 °FPassing clouds.20 mph84%29.89 "HgN/A
11:00 PM
Apr 23
81 °FPassing clouds.20 mph84%29.89 "HgN/A
10:00 PM81 °FPassing clouds.15 mph84%29.89 "HgN/A
9:00 PM81 °FPassing clouds.20 mph84%29.83 "HgN/A
8:00 PM81 °FPassing clouds.18 mph84%29.80 "HgN/A
7:00 PM82 °FPassing clouds.22 mph79%29.80 "HgN/A
Weather by CustomWeather, © 2014

See weather overview